Regional Weather Roundup
Issued by NWS

Home | Current Version | Previous Version | Graphics & Text | Print | Product List | Glossary On
Versions: 1 2 3 4 5 6 7 8 9 10 11 12 13 14 15 16 17 18 19 20 21 22 23 24 25 26 27 28 29 30 31 32 33 34 35 36 37 38 39 40 41 42 43 44 45 46 47 48 49 50
000
ASUS43 KDMX 290107
RWRIA

WEATHER ROUNDUP FOR IOWA
NATIONAL WEATHER SERVICE DES MOINES IA
800 PM CDT SAT MAR 28 2015

NOTE: "FAIR" INDICATES FEW OR NO CLOUDS BELOW 12,000 FEET WITH NO
SIGNIFICANT WEATHER AND/OR OBSTRUCTIONS TO VISIBILITY.

* - THESE STATIONS ARE NOT NWS STATIONS...THUS NOT UNDER NWS
QUALITY CONTROL.  THEY ALSO DO NOT REPORT WEATHER SUCH
AS PRECIPITATION OR FOG.

IAZ001>003-012>014-020>022-031>034-043>046-290200-
   NORTHWEST IOWA

CITY           SKY/WX    TMP DP  RH WIND       PRES   REMARKS
CARROLL *      CLEAR     43  27  52 S13       30.05S
CHEROKEE *     CLEAR     45  28  53 S12       29.99F
DENISON *      CLEAR     46  27  46 S13       30.01S
LE MARS *      CLEAR     48  28  46 S13       29.96F
ORANGE CITY *  CLEAR     46  27  46 S12       29.95F
SHELDON *      CLEAR     45  28  53 S15       29.94F
SIOUX CITY     CLEAR     50  29  44 S12G22    29.97F
SPENCER        CLEAR     43  29  57 S15       29.98F
STORM LAKE *   CLEAR     41  28  60 S14       30.01F
$$

IAZ055>058-069>071-079>083-090>094-290200-
   SOUTHWEST IOWA

CITY           SKY/WX    TMP DP  RH WIND       PRES   REMARKS
ATLANTIC *     CLEAR     45  28  53 S9        30.06S
AUDUBON *      CLEAR     43  27  52 S6        30.06F
CLARINDA *     CLEAR     46  30  53 SE10      30.09F
COUNCIL BLFS * CLEAR     46  32  57 S16G22    30.02F
CRESTON *      CLEAR     41  28  60 SE12      30.10F
HARLAN  *      CLEAR     45  30  57 S13       30.07S
LAMONI         CLEAR     43  28  55 S6        30.13S
RED OAK *      CLEAR     46  30  53 S10       30.07S
SHENANDOAH *   CLEAR     46  32  57 SE10      30.07S
$$

IAZ047>049-059>061-072>074-084-290200-
   CENTRAL IOWA

CITY           SKY/WX    TMP DP  RH WIND       PRES   REMARKS
AMES           CLEAR     41  19  41 SE12      30.10F
ANKENY *       CLEAR     43  19  39 S9        30.11F
CHARITON *     CLEAR     41  23  48 SE9       30.13F
DES MOINES     CLEAR     44  21  40 S10       30.12F
GRINNELL*      CLEAR     37  16  41 SE8       30.16S WCI  31
KNOXVILLE *    CLEAR     41  18  38 SE9       30.13S
MARSHALLTOWN   CLEAR     40  17  39 SE12      30.12F WCI  33
PELLA *        CLEAR     41  23  48 SE8       30.16S
PERRY *          N/A     43  25  49 S12       30.08F
$$

IAZ004>006-015-016-023>025-035-036-290200-
   NORTH CENTRAL IOWA

CITY           SKY/WX    TMP DP  RH WIND       PRES   REMARKS
ALGONA *       CLEAR     41  23  48 S14       30.04S
CLARION *      CLEAR     37  25  60 SE14      30.07F WCI  29
ESTHERVILLE    CLEAR     41  25  53 S15       30.00F
FORT DODGE *   CLEAR     45  19  36 S10G16    30.06F
MASON CITY     CLEAR     37  21  52 SE10      30.09F WCI  30
FOREST CITY *  CLEAR     36  27  69 SE10      30.06F WCI  28
IOWA FALLS *     N/A     37  23  56 SE10      30.11F WCI  30
$$

IAZ007>011-017>019-026>030-037>042-050>054-066-290200-
   NORTHEAST IOWA

CITY           SKY/WX    TMP DP  RH WIND       PRES   REMARKS
CEDAR RAPIDS   CLEAR     34  15  46 SE8       30.18S WCI  27
CHARLES CITY * CLEAR     37  19  48 S13       30.12F WCI  29
CLINTON *      CLEAR     32  12  43 SE7       30.26S WCI  26
DECORAH *      CLEAR     34  19  55 S7        30.14S WCI  28
DUBUQUE        CLEAR     29  15  56 S9        30.21S WCI  20
MONTICELLO *   CLEAR     34  16  47 SE7       30.21R WCI  28
OELWEIN *      CLEAR     36  16  44 S9        30.16S WCI  29
WATERLOO       CLEAR     39  15  37 S14       30.15S WCI  31
$$

IAZ064-065-067-068-078-290200-
   EAST CENTRAL IOWA

CITY           SKY/WX    TMP DP  RH WIND       PRES   REMARKS
DAVENPORT      CLEAR     34  11  38 S9        30.24R WCI  27
IOWA CITY      CLEAR     35  16  45 SE7       30.22S WCI  29
MT. PLEASANT * CLEAR     34  16  47 SE8       30.22S WCI  27
MUSCATINE *    CLEAR     37  12  35 S7        30.24R WCI  32
QUAD CITIES    CLEAR     35  13  40 S5        30.23S WCI  31
$$

IAZ062-063-075>077-085>089-095>099-290200-
   SOUTHEAST IOWA

CITY           SKY/WX    TMP DP  RH WIND       PRES   REMARKS
BURLINGTON     CLEAR     36  15  42 S7        30.22S WCI  30
FAIRFIELD *    CLEAR     36  16  44 SE9       30.20S WCI  29
FORT MADISON * CLEAR     37  18  44 SE6       30.23S WCI  33
KEOKUK *       CLEAR     37  18  44 SE7       30.22S WCI  32
OSKALOOSA *      N/A     36  18  48 SE10      30.18S WCI  28
CENTERVILLE *  CLEAR     39  23  52 SE9       30.17S WCI  33
OTTUMWA        CLEAR     39  16  39 SE9       30.17S WCI  33
WASHINGTON *   CLEAR     36  16  44 S8        30.21S WCI  29
$$

ABBREVIATIONS USED IN REMARKS
   TC - TEMPERATURES IN CELSIUS
  WCI - WIND CHILL INDEX
   HX - HEAT INDEX
  VSB - VISIBILITY
$$




USA.gov is the U.S. government's official web portal to all federal, state and local government web resources and services.